Weather in Za Rodinu

Russia / Krasnodar Krai     45°21′40″N   37°04′53″E
temp.,
°C
wind,
m/s
gust,
m/s
humid.,
%
clouds,
%
prec.,
mm/h
press.,
hPa
HPBL,
m
12 may, wed
wed1200:00+9sw11672 0.0 1014178
03:00+9ssw12700 0.0 1013180
06:00+9sse22680 0.0 1014156
09:00+12sse3485100 0.4 1013350
12:00+13s8969100 0.5 10141020
15:00+14s8965100 0.5 1014811
18:00+14s5764100 0.0 1013486
21:00+12sse346643 0.0 1013112
13 may, thu
thu1300:00+11sse12645 0.0 101238
03:00+11ne11645 0.0 101225
06:00+11ene22660 0.0 101240
09:00+16ne556134 0.0 1012285
12:00+20ene455989 0.0 1012447
15:00+20ne5563100 0.0 1011265
18:00+20ene45693 0.0 1010151
21:00+17e45815 0.0 101051
14 may, fri
fri1400:00+16ese23895 0.0 100927
03:00+16sw22840 0.0 100916
06:00+16nw116214 0.0 100911
09:00+21se12485 0.0 1010217
12:00+23sw23435 0.0 1010484
15:00+22w12500 0.0 1011182
18:00+22nnw33530 0.0 1010153
21:00+17n22600 0.1 101111
15 may, sat
sat1500:00+16w4461100 0.0 101239
03:00+16nw22640 0.0 101228
06:00+15nnw368897 0.0 1013119
09:00+19n346465 0.0 1014248
12:00+22nne33545 0.0 1014462
15:00+22n4355100 0.0 1013425
18:00+20nne345999 0.0 1012160
21:00+16ene33660 0.0 101237
16 may, sun
sun1600:00+16nne226914 0.0 101115
03:00+16ene34725 0.0 101043
06:00+16ene35775 0.0 100991
09:00+21ene68725 0.0 1007336
12:00+25e68615 0.0 1006676
15:00+24ne6768100 0.0 1004245
18:00+24ene5107041 0.0 1002367
21:00+20ene3789100 0.2 1002110